Regional Weather Roundup
Issued by NWS

Home | Current Version | Previous Version | Graphics & Text | Print | Product List | Glossary On
Versions: 1 2 3 4 5 6 7 8 9 10 11 12 13 14 15 16 17 18 19 20 21 22 23 24 25 26 27 28 29 30 31 32 33 34 35 36 37 38 39 40 41 42 43 44 45 46 47 48 49 50
134
ASUS43 KMKX 141110
RWRWI

WISCONSIN REGIONAL WEATHER ROUNDUP
NATIONAL WEATHER SERVICE MILWAUKEE/SULLIVAN WI
500 AM CST SUN FEB 14 2016

NOTE: "FAIR" INDICATES FEW OR NO CLOUDS BELOW 12,000 FEET WITH NO
SIGNIFICANT WEATHER AND/OR OBSTRUCTIONS TO VISIBILITY.

WIZ001-002-006>008-014>016-023>028-141200-
NORTHWEST WISCONSIN

CITY           SKY/WX    TMP DP  RH WIND       PRES   REMARKS
SUPERIOR ARPT  CLOUDY    -9 -13  83 CALM      30.23F
ASHLAND        CLOUDY   -15 -20  78 S3        30.26F
HAYWARD        CLOUDY    -9 -15  75 CALM      30.20F
SIREN          CLOUDY     7  -8  50 SE7       30.17F WCI  -5
CUMBERLAND     CLOUDY     1 -11  55 SE7       30.17F WCI -11
RICE LAKE      CLOUDY     2 -10  57 SE12      30.22S WCI -14
CHETEK         CLOUDY     0 -10  61 SE8       30.22S WCI -14
LADYSMITH      CLOUDY    -6 -14  66 E8        30.24F WCI -21
EAU CLAIRE     CLOUDY     2 -11  54 SE8       30.23F WCI -12
MENOMONIE      CLOUDY     5  -7  58 E7        30.23S WCI  -7
NEW RICHMOND   CLOUDY     6  -6  57 SE8       30.17F WCI  -7
OSCEOLA        CLOUDY     7  -5  57 SE10      30.19F WCI  -7
$$

WIZ003>005-009-010-017-018-141200-
NORTH CENTRAL WISCONSIN

CITY           SKY/WX    TMP DP  RH WIND       PRES   REMARKS
MANITOWISH WTR CLOUDY   -22 -28  75 CALM      30.21F
ARBOR VITAE    CLOUDY   -14 -20  75 SE3       30.22F
WOODRUFF       CLOUDY   -14 -20  75 SE3       30.22F
RHINELANDER    CLOUDY   -18 -22  82 E3        30.23F
EAGLE RIVER    CLOUDY   -22 -30  66 CALM      30.23F
LAND O LAKES   CLEAR    -25 -31  72 CALM      30.23F
PHILLIPS       CLOUDY   -22 -28  76 CALM      30.21F
TOMAHAWK       CLOUDY   -24 -30  74 CALM      30.25S
MEDFORD        CLOUDY    -5 -13  68 SE5       30.21F WCI -16
MERRILL        CLOUDY   -21 -26  74 CALM      30.29S
$$

WIZ029-030-035-036-043>047-141200-
CENTRAL WISCONSIN

CITY           SKY/WX    TMP DP  RH WIND       PRES   REMARKS
WAUSAU         CLOUDY   -12 -18  74 E5        30.28F WCI -24
MOSINEE        NOT AVBL
MARSHFIELD     PTCLDY    -8 -16  67 E6        30.25F WCI -21
STEVENS POINT  CLOUDY   -17 -23  76 CALM      30.31S
WAUPACA        CLOUDY   -13 -19  73 CALM      30.36S
WAUTOMA        CLOUDY   -17 -24  70 CALM      30.34F
WISC RAPIDS    PTCLDY    -7 -15  68 SE5       30.31F WCI -18
CAMP DOUGLAS   CLOUDY    -4  -8  85 E6        30.28F WCI -17
$$

WIZ011>013-019>022-031-037>040-048>050-141200-
NORTHEAST WISCONSIN

CITY           SKY/WX    TMP DP  RH WIND       PRES   REMARKS
ANTIGO         PTCLDY   -17 -22  76 CALM      30.26S
SHAWANO        CLOUDY    -7 -12  79 CALM      30.36F
OCONTO         CLOUDY   -13 -17  82 CALM      30.38F
STURGEON BAY   CLOUDY    -2 -11  65 CALM      30.38F
GREEN BAY      CLOUDY   -12 -16  82 CALM      30.37F
MANITOWOC      CLOUDY    -5 -12  72 NW3       30.38F
APPLETON       NOT AVBL
CLINTONVILLE   CLOUDY   -11 -17  77 CALM      30.36R
OSHKOSH        CLOUDY    -4 -11  72 S5        30.35S WCI -15
$$

WIZ032>034-041-042-053>061-141200-
SOUTHWEST WISCONSIN

CITY           SKY/WX    TMP DP  RH WIND       PRES   REMARKS
LA CROSSE      CLOUDY    10  -3  55 E7        30.25F WCI  -1
SPARTA         CLOUDY     7  -4  61 E6        30.27F WCI  -3
VIROQUA        CLOUDY     7  -3  62 SE14      30.19F WCI  -9
BOSCOBEL       CLOUDY     9   0  67 VRB5      30.28F WCI   1
PRAIRIE DU CHI MIX PCPN  12   5  73 E8        30.24F WCI   1
PLATTEVILLE    CLOUDY    13   7  77 E13       30.24F WCI  -2
$$

WIZ056-057-062-063-064-067-068-141200-
SOUTH CENTRAL WISCONSIN

CITY           SKY/WX    TMP DP  RH WIND       PRES   REMARKS
REEDSBURG      CLOUDY     2  -6  69 CALM      30.29F
BARABOO/DELLS  CLOUDY     1  -7  70 SE6       30.28F WCI -11
LONE ROCK      CLOUDY     9  -1  64 E8        30.31F WCI  -3
MINERAL POINT  CLOUDY    14   3  62 SE9       30.25F WCI   2
MADISON        CLOUDY     7  -4  60 SE8       30.31F WCI  -6
MIDDLETON      CLOUDY    10   0  63 SE8       30.31F WCI  -2
WATERTOWN      CLOUDY     1  -6  74 CALM      30.34F
MONROE         CLOUDY    12   3  67 SE10      30.27F WCI  -1
JANESVILLE     CLOUDY    14   3  62 SE8       30.33F WCI   3
$$

WIZ051-052-058>065-066-070>072-141200-
SOUTHEAST WISCONSIN

CITY           SKY/WX    TMP DP  RH WIND       PRES   REMARKS
MILWAUKEE      CLOUDY     5  -3  69 CALM      30.37F
WAUKESHA       CLOUDY    -4  -8  84 CALM      30.37S
MILWAUKEE/TIMM PTCLDY     1  -6  71 CALM      30.38F
RACINE         CLOUDY     6  -3  66 CALM      30.39F
BURLINGTON     CLOUDY    -1  -5  85 CALM      30.37S
KENOSHA        CLOUDY     4  -3  73 CALM      30.37F
FOND DU LAC    CLOUDY    -9 -15  75 S5        30.35F WCI -20
SHEBOYGAN      CLOUDY    -4 -10  75 CALM      30.36F
WEST BEND      CLOUDY    -6  -9  84 CALM      30.36S
JUNEAU         CLOUDY    -1  -8  71 SE7       30.35F WCI -15
$$

LSZ147-162-141200-
LAKE SUPERIOR

STATION/POSITION TIME  TEMP    WIND        PRES    WAVE
                       AIR SEA DIR/SP/G            HT/PER
                 (UTC) (F)     (DEG/KT/KT) (MB)    (FT/S)
DEVILS ISLAND    1100    5     160/  7/  8 1026.9F
SAXON HARBOR     0840  -17                 1026.8
$$

LMZ867-665-643>646-141200-
LAKE MICHIGAN

STATION/POSITION TIME  TEMP    WIND        PRES    WAVE
                       AIR SEA DIR/SP/G            HT/PER
                 (UTC) (F)     (DEG/KT/KT) (MB)    (FT/S)
CHAMBERS ISLAND  1000    0     180/  2/  6 1028.8F
SISTER BAY       1019    1        CALM       N/A
ALGOMA LAKESHORE 1041             CALM       N/A
KEWAUNEE LAKESHO 1000   -3     300/  6/  6 1028.0F
SHEBOYGAN LAKESH 1100    8     260/  4/  5 1030.4F
PORT WASHINGTON  1040    3     280/  5/  6 1029.8F
MILWAUKEE LAKESH 1010   12     300/  3/  3   N/A
KENOSHA   LAKESH 1100   11     230/  8/ 11 1028.8S
$$

TC  - TEMPERATURE IN CELSIUS
VSB - VISIBILITY IN STATUTE MILES
WCI - WIND CHILL INDEX
HX  - HEAT INDEX





USA.gov is the U.S. government's official web portal to all federal, state and local government web resources and services.